Terminal Aerodrome Forecast
Issued by NWS Upton, NY

Home | Current Version | Previous Version | Text Only | Print | Product List | Glossary On
Versions: 1 2 3 4 5 6 7 8 9 10 11 12 13 14 15 16 17 18 19 20 21 22 23 24 25 26 27 28 29
000
FTUS41 KOKX 291733
TAFBDR
TAF
KBDR 291733Z 2918/3018 04007KT P6SM BKN015 BKN025 OVC050
     FM291900 07009KT P6SM SCT020 SCT050
     FM300100 VRB03KT P6SM SCT250
     FM301200 05006KT P6SM FEW120 SCT150
     FM301600 12006KT P6SM BKN080 BKN120=

USA.gov is the U.S. government's official web portal to all federal, state and local government web resources and services.